SHIJIAN-20 (SJ-20) 1 44910U 19097A 21055.09538660 -.00000208 00000-0 00000+0 0 9994 2 44910 0.7036 95.1031 0006056 306.5646 234.3420 1.00273777 4255 CZ-5 R/B 1 44911U 19097B 21054.51933739 -.00000340 00000-0 46460-3 0 9998 2 44911 15.9152 232.6722 8359982 322.0914 1.4766 0.96273450 4108